FW0236 Weather Reports


Display with metric or nautical units.
time (UTC)temp
F
wind
direction
speed
MPH
gust
MPH
rain 1hr
in
rain 24hr
in
rain mn
in
humidity
%
barometer
mb
20260503183009 61 297 1.0 6.0 0.00 0.00 0.00 40 1012.1
20260503181506 60 232 0.0 6.0 0.00 0.00 0.00 43 1012.3
20260503180005 60 240 0.0 4.0 0.00 0.00 0.00 43 1012.4
20260503174501 60 239 1.0 7.0 0.00 0.00 0.00 42 1012.7
20260503173104 60 246 1.0 7.0 0.00 0.00 0.00 43 1012.9
20260503171556 59 253 2.0 9.0 0.00 0.00 0.00 44 1013.2
20260503170105 58 233 0.0 5.0 0.00 0.00 0.00 45 1013.5
20260503081541 31 272 0.0 0.0 0.00 0.00 0.00 88 1016.1
20260503071533 31 272 0.0 0.0 0.00 0.00 0.00 87 1016.3
20260503054522 33 272 0.0 0.0 0.00 0.00 0.00 84 1017.0
20260503053026 33 272 0.0 0.0 0.00 0.00 0.00 83 1017.0
20260503051518 34 272 0.0 0.0 0.00 0.00 0.00 83 1017.0
20260503050015 34 272 0.0 0.0 0.00 0.00 0.00 83 1017.1
20260503044513 34 272 0.0 0.0 0.00 0.00 0.00 82 1017.2
20260503043011 35 272 0.0 0.0 0.00 0.00 0.00 82 1017.2
20260503041511 35 271 0.0 0.0 0.00 0.00 0.00 81 1017.2
20260503040008 35 272 0.0 0.0 0.00 0.00 0.00 80 1017.2
20260503034508 35 272 0.0 0.0 0.00 0.00 0.00 80 1017.3
20260503033007 36 272 0.0 0.0 0.00 0.00 0.00 79 1017.3
20260503031507 36 272 0.0 0.0 0.00 0.00 0.00 78 1017.4
20260503030006 37 271 0.0 0.0 0.00 0.00 0.00 77 1017.5
20260503024506 37 272 0.0 0.0 0.00 0.00 0.00 75 1017.5
20260503023005 38 272 0.0 0.0 0.00 0.00 0.00 74 1017.7
20260503021505 38 272 0.0 0.0 0.00 0.00 0.00 72 1017.7
20260503020004 39 272 0.0 0.0 0.00 0.00 0.00 70 1017.5
20260503014503 40 272 0.0 0.0 0.00 0.00 0.00 67 1017.5
20260503013010 41 272 0.0 0.0 0.00 0.00 0.00 64 1017.5
20260503011502 42 272 0.0 0.0 0.00 0.00 0.00 61 1017.4
20260503010004 43 272 0.0 0.0 0.00 0.00 0.00 60 1017.4
20260503004503 44 272 0.0 0.0 0.00 0.00 0.00 56 1017.4
20260503003003 45 272 0.0 0.0 0.00 0.00 0.00 55 1017.2
20260503001504 46 271 0.0 0.0 0.00 0.00 0.00 51 1017.2
20260503000107 46 272 0.0 1.0 0.00 0.00 0.00 49 1017.2
20260502234559 47 274 0.0 2.0 0.00 0.00 0.00 49 1017.1
20260502233059 47 290 0.0 2.0 0.00 0.00 0.00 47 1017.3
20260502231605 48 274 0.0 1.0 0.00 0.00 0.00 47 1017.4
20260502230056 48 271 0.0 1.0 0.00 0.00 0.00 48 1017.4
20260502224556 47 281 0.0 1.0 0.00 0.00 0.00 49 1017.4
20260502223055 47 287 0.0 6.0 0.00 0.00 0.00 47 1017.4
20260502221557 47 321 0.0 3.0 0.00 0.00 0.00 47 1017.4
20260502220054 48 294 0.0 4.0 0.00 0.00 0.00 48 1017.4
20260502214558 48 293 0.0 2.0 0.00 0.00 0.00 46 1017.4
20260502213052 47 162 0.0 4.0 0.00 0.00 0.00 48 1017.5
20260502211553 47 288 0.0 2.0 0.00 0.00 0.00 47 1017.5
20260502210100 48 277 1.0 3.0 0.00 0.00 0.00 46 1017.6
20260502204554 47 266 0.0 3.0 0.00 0.00 0.00 47 1017.6
20260502203051 48 270 0.0 3.0 0.00 0.00 0.00 47 1017.7
20260502201546 47 242 0.0 3.0 0.00 0.00 0.00 46 1017.8
20260502200051 47 268 0.0 3.0 0.00 0.00 0.00 48 1018.0
20260502194545 47 273 0.0 3.0 0.00 0.00 0.00 48 1018.1
20260502193046 47 284 0.0 5.0 0.00 0.00 0.00 48 1018.2
20260502191544 47 281 0.0 4.0 0.00 0.00 0.00 48 1018.3
20260502190048 47 328 1.0 4.0 0.00 0.00 0.00 45 1018.4
20260502184542 47 264 0.0 6.0 0.00 0.00 0.00 46 1018.5